Ely, NV

11:46 PM PDT on August 26, 2016 (GMT -0700)
Ely

Weather History for KELY - March, 2014

Change the Weather History Date:

Tuesday, March 25, 2014

  Actual Average Record
Temperature  
Mean Temperature 44 °F 38 °F  
Max Temperature 65 °F 52 °F 70 °F (1908)
Min Temperature 23 °F 24 °F -1 °F (1942)
Degree Days  
Heating Degree Days 21 27  
Month to date heating degree days 665 732  
Since 1 July heating degree days 5684 6069  
Cooling Degree Days 0 0  
Month to date cooling degree days 0 0  
Year to date cooling degree days 0 0  
Moisture  
Dew Point 6 °F    
Average Humidity 32    
Maximum Humidity 55    
Minimum Humidity 8    
Precipitation  
Precipitation 0.00 in 0.04 in 0.40 in (1899)
Month to date precipitation 0.07 0.75  
Year to date precipitation 1.80 2.20  
Snow  
Snow 0.00 in 0.30 in 5.30 in (1961)
Month to date snowfall 0.6 6.8  
Since 1 July snowfall 39.7 41.7  
Snow Depth 0.00 in    
Sea Level Pressure  
Sea Level Pressure 29.80 in    
Wind  
Wind Speed 13 mph (South)    
Max Wind Speed 28 mph    
Max Gust Speed 36 mph    
Visibility 10 miles    
Events      
T = Trace of Precipitation, MM = Missing Value Source: NWS Daily Summary

Daily Weather History Graph

Daily Weather History Graph

Search for Another Location

Airport or City:

Trip Planner

Search our weather history database for the weather conditions in past years. The results will help you decide how hot, cold, wet, or windy it might be!

Date:

Astronomy

Mar. 25, 2014 Rise Set
Actual Time 6:34 AM PDT 6:56 PM PDT
Civil Twilight 6:07 AM PDT 7:23 PM PDT
Nautical Twilight 5:36 AM PDT 7:54 PM PDT
Astronomical Twilight 5:04 AM PDT 8:27 PM PDT
Moon 2:58 AM PDT (3/25) 1:33 PM PDT (3/25)
Length of Visible Light 13h 15m
Length of Day
12h 21m
Waning Crescent, 31% of the Moon is Illuminated
Mar 25
Waning Crescent
Mar 30
New
Apr 7
First Quarter
Apr 15
Full
Apr 22
Last Quarter

Hourly Weather History & Observations

Time (PDT) Temp. Windchill Dew Point Humidity Pressure Visibility Wind Dir Wind Speed Gust Speed Precip Events Conditions
12:53 AM 33.1 °F 24.9 °F 9.0 °F 37% 30.06 in 10.0 mi South 10.4 mph - N/A   Clear
1:53 AM 27.0 °F - 10.0 °F 49% 30.08 in 10.0 mi Calm Calm - N/A   Clear
2:53 AM 26.1 °F 15.6 °F 10.0 °F 51% 30.04 in 10.0 mi South 11.5 mph - N/A   Clear
3:53 AM 25.0 °F 17.1 °F 10.0 °F 53% 30.02 in 10.0 mi South 6.9 mph - N/A   Clear
4:53 AM 26.1 °F 16.2 °F 9.0 °F 49% 29.99 in 10.0 mi SSE 10.4 mph - N/A   Clear
5:53 AM 24.1 °F 17.0 °F 10.0 °F 55% 30.01 in 10.0 mi South 5.8 mph - N/A   Clear
6:53 AM 24.1 °F 15.2 °F 10.0 °F 55% 30.04 in 10.0 mi South 8.1 mph - N/A   Clear
7:53 AM 32.0 °F 22.5 °F 12.9 °F 45% 30.02 in 10.0 mi South 12.7 mph - N/A   Clear
8:53 AM 50.0 °F - 8.1 °F 18% 29.94 in 10.0 mi SSW 10.4 mph - N/A   Clear
9:53 AM 55.9 °F - 7.0 °F 14% 29.92 in 10.0 mi WSW 13.8 mph - N/A   Clear
10:19 AM 59.0 °F - 3.9 °F 11% 30.02 in 10.0 mi SSE 11.5 mph 20.7 mph N/A   Clear
10:53 AM 61.0 °F - -2.0 °F 8% 29.86 in 10.0 mi SW 10.4 mph 23.0 mph N/A   Clear
11:53 AM 62.1 °F - 1.9 °F 9% 29.81 in 10.0 mi SSW 20.7 mph 27.6 mph N/A   Clear
12:53 PM 63.0 °F - 6.1 °F 11% 29.78 in 10.0 mi SSW 25.3 mph 32.2 mph N/A   Clear
1:53 PM 64.0 °F - 1.9 °F 8% 29.76 in 10.0 mi South 24.2 mph 34.5 mph N/A   Clear
2:53 PM 64.0 °F - 3.9 °F 9% 29.73 in 10.0 mi SSW 16.1 mph 29.9 mph N/A   Clear
3:53 PM 63.0 °F - 3.9 °F 10% 29.70 in 10.0 mi SSW 17.3 mph 28.8 mph N/A   Clear
4:53 PM 63.0 °F - 5.0 °F 10% 29.64 in 10.0 mi South 17.3 mph 35.7 mph N/A   Clear
5:53 PM 60.1 °F - 5.0 °F 11% 29.64 in 10.0 mi South 19.6 mph - N/A   Clear
6:53 PM 57.0 °F - 3.9 °F 12% 29.64 in 10.0 mi South 20.7 mph 25.3 mph N/A   Clear
7:53 PM 55.9 °F - 6.1 °F 14% 29.60 in 10.0 mi SSW 13.8 mph - N/A   Clear
8:53 PM 55.0 °F - 6.1 °F 14% 29.51 in 10.0 mi South 13.8 mph - N/A   Clear
9:53 PM 50.0 °F - 8.1 °F 18% 29.51 in 10.0 mi SSE 11.5 mph - N/A   Clear
10:53 PM 50.0 °F - 8.1 °F 18% 29.47 in 10.0 mi SSE 11.5 mph - N/A   Mostly Cloudy
11:53 PM 48.9 °F - 10.0 °F 21% 29.45 in 10.0 mi West 17.3 mph 21.9 mph N/A   Overcast